^^
Station Historical Data
 
Daily Summary for June 26, 2019 Units:  Metric    English   Both
« Previous Day
Next Day »
Daily Weekly Monthly Yearly Custom
  Current: High: Low: Average:
Temperature: 32.2 °C 32.5 °C 25.5 °C 28.5 °C
Dew Point: 16.8 °C 18.9 °C 15.7 °C 17.2 °C
Humidity: 40% 62% 38% 51%
Wind Speed: 16.7km/h 35.4km/h 3.2km/h 17km/h
Wind Gust: 8.5km/h 32.2km/h - -
WindENE - - SSW
Pressure: 1014.0 hPa 1014.5 hPa 1013.2 hPa -
Precipitation: 0.0 mm      
Historical Graphs
 
 
Tabular Data for June 26, 2019
Time Temperature Dew Point Pressure Wind Wind Speed Wind Gust Humidity Rainfall Rate (Hourly) Conditions
00:00 26.9 °C 16.5 °C 1014.3 hPa WNW 9.7 km/h 19.3 km/h 53% 0.0 mm SKC
00:05 26.9 °C 16.6 °C 1014.3 hPa NW 16.7 km/h 10.6 km/h 53% 0.0 mm SKC
00:10 27.0 °C 16.3 °C 1014.2 hPa WNW 18.5 km/h 9.7 km/h 52% 0.0 mm SKC
00:15 27.1 °C 16.3 °C 1014.3 hPa NW 11.3 km/h 22.5 km/h 52% 0.0 mm SKC
00:20 27.1 °C 16.1 °C 1014.3 hPa NNW 12.9 km/h 20.9 km/h 51% 0.0 mm SKC
00:25 27.2 °C 16.2 °C 1014.2 hPa NE 13.0 km/h 6.4 km/h 51% 0.0 mm SKC
00:30 27.3 °C 15.9 °C 1014.1 hPa NNW 11.3 km/h 20.9 km/h 50% 0.0 mm SKC
00:35 27.3 °C 15.7 °C 1014.2 hPa NW 20.4 km/h 7.9 km/h 49% 0.0 mm SKC
00:40 27.4 °C 15.7 °C 1014.2 hPa NNE 18.5 km/h 9.3 km/h 49% 0.0 mm SKC
00:45 27.4 °C 15.7 °C 1014.1 hPa NNW 20.9 km/h 8.0 km/h 49% 0.0 mm SKC
00:50 27.4 °C 15.7 °C 1014.1 hPa ENE 11.1 km/h 7.2 km/h 49% 0.0 mm SKC
00:55 27.3 °C 15.7 °C 1014.1 hPa NNW 17.7 km/h 6.3 km/h 49% 0.0 mm SKC
01:00 27.3 °C 16.0 °C 1014.1 hPa NNW 4.8 km/h 19.3 km/h 50% 0.0 mm SKC
01:05 27.3 °C 15.9 °C 1014.0 hPa North 16.7 km/h 9.0 km/h 50% 0.0 mm SKC
01:10 27.2 °C 15.9 °C 1014.0 hPa North 16.7 km/h 10.3 km/h 50% 0.0 mm SKC
01:15 27.3 °C 15.9 °C 1014.0 hPa North 20.9 km/h 11.6 km/h 50% 0.0 mm SKC
01:20 27.3 °C 16.0 °C 1014.0 hPa North 16.1 km/h 3.9 km/h 50% 0.0 mm SKC
01:25 27.3 °C 16.0 °C 1014.0 hPa North 18.5 km/h 10.1 km/h 50% 0.0 mm SKC
01:30 27.3 °C 16.0 °C 1013.9 hPa NNW 18.5 km/h 13.8 km/h 50% 0.0 mm SKC
01:35 27.3 °C 15.9 °C 1013.9 hPa NNW 27.8 km/h 18.5 km/h 50% 0.0 mm SKC
01:40 27.3 °C 15.9 °C 1013.9 hPa North 19.3 km/h 12.2 km/h 50% 0.0 mm SKC
01:45 27.2 °C 15.9 °C 1013.8 hPa North 14.8 km/h 9.3 km/h 50% 0.0 mm SKC
01:50 27.2 °C 16.2 °C 1013.7 hPa ESE 27.8 km/h 16.9 km/h 51% 0.0 mm SKC
01:55 27.2 °C 16.2 °C 1013.7 hPa NNW 18.5 km/h 15.4 km/h 51% 0.0 mm SKC
02:00 27.2 °C 16.4 °C 1013.7 hPa NNW 12.9 km/h 25.7 km/h 52% 0.0 mm SKC
02:05 27.1 °C 16.4 °C 1013.6 hPa NNW 12.9 km/h 29.0 km/h 52% 0.0 mm SKC
02:10 27.1 °C 16.4 °C 1013.5 hPa NW 25.9 km/h 13.7 km/h 52% 0.0 mm SKC
02:15 27.1 °C 16.4 °C 1013.4 hPa NW 29.6 km/h 12.6 km/h 52% 0.0 mm SKC
02:20 27.1 °C 16.4 °C 1013.5 hPa NW 18.5 km/h 10.1 km/h 52% 0.0 mm SKC
02:25 27.1 °C 16.4 °C 1013.4 hPa NW 25.9 km/h 15.6 km/h 52% 0.0 mm SKC
02:30 27.2 °C 16.4 °C 1013.5 hPa WNW 20.4 km/h 8.7 km/h 52% 0.0 mm SKC
02:35 27.2 °C 16.4 °C 1013.4 hPa NNW 13.0 km/h 7.4 km/h 52% 0.0 mm SKC
02:40 27.2 °C 16.4 °C 1013.5 hPa NNW 22.2 km/h 15.4 km/h 52% 0.0 mm SKC
02:45 27.2 °C 16.4 °C 1013.5 hPa North 22.2 km/h 14.0 km/h 52% 0.0 mm SKC
02:50 27.1 °C 16.4 °C 1013.4 hPa North 14.8 km/h 9.5 km/h 52% 0.0 mm SKC
02:55 27.1 °C 16.4 °C 1013.4 hPa ESE 18.5 km/h 10.0 km/h 52% 0.0 mm SKC
03:00 27.1 °C 16.7 °C 1013.4 hPa North 11.3 km/h 20.9 km/h 53% 0.0 mm SKC
03:05 27.1 °C 16.7 °C 1013.5 hPa NE 13.0 km/h 6.3 km/h 53% 0.0 mm SKC
03:10 27.1 °C 16.9 °C 1013.4 hPa North 22.5 km/h 10.6 km/h 54% 0.0 mm SKC
03:15 27.1 °C 16.9 °C 1013.4 hPa North 16.1 km/h 29.0 km/h 54% 0.0 mm SKC
03:20 27.1 °C 16.9 °C 1013.3 hPa NNW 31.5 km/h 12.7 km/h 54% 0.0 mm SKC
03:25 27.1 °C 17.0 °C 1013.3 hPa NE 16.7 km/h 9.5 km/h 54% 0.0 mm SKC
03:30 27.1 °C 17.0 °C 1013.3 hPa North 9.7 km/h 29.0 km/h 54% 0.0 mm SKC
03:35 27.1 °C 17.0 °C 1013.3 hPa NNW 18.5 km/h 10.6 km/h 54% 0.0 mm SKC
03:40 27.1 °C 17.2 °C 1013.3 hPa NE 16.7 km/h 11.3 km/h 55% 0.0 mm SKC
03:45 27.1 °C 17.2 °C 1013.3 hPa NW 25.9 km/h 9.5 km/h 55% 0.0 mm SKC
03:50 26.9 °C 17.1 °C 1013.3 hPa NNW 16.7 km/h 9.3 km/h 55% 0.0 mm SKC
03:55 26.9 °C 17.1 °C 1013.3 hPa North 24.1 km/h 15.0 km/h 55% 0.0 mm SKC
04:00 26.9 °C 17.1 °C 1013.2 hPa North 9.7 km/h 22.5 km/h 55% 0.0 mm SKC
04:05 26.9 °C 17.1 °C 1013.2 hPa West 6.4 km/h 3.2 km/h 55% 0.0 mm SKC
04:10 26.9 °C 17.1 °C 1013.2 hPa North 7.4 km/h 4.2 km/h 55% 0.0 mm SKC
04:15 26.9 °C 17.1 °C 1013.2 hPa WNW 25.9 km/h 12.1 km/h 55% 0.0 mm SKC
04:20 26.9 °C 17.1 °C 1013.2 hPa WNW 24.1 km/h 12.2 km/h 55% 0.0 mm SKC
04:25 26.9 °C 17.4 °C 1013.2 hPa NW 14.8 km/h 6.8 km/h 56% 0.0 mm SKC
04:30 26.8 °C 17.3 °C 1013.2 hPa WNW 9.7 km/h 16.1 km/h 56% 0.0 mm SKC
04:35 26.8 °C 17.3 °C 1013.2 hPa NNW 9.3 km/h 3.2 km/h 56% 0.0 mm SKC
04:40 26.8 °C 17.3 °C 1013.2 hPa WNW 7.4 km/h 5.1 km/h 56% 0.0 mm SKC
04:45 26.8 °C 17.3 °C 1013.2 hPa NW 16.7 km/h 11.6 km/h 56% 0.0 mm SKC
04:50 26.8 °C 17.6 °C 1013.2 hPa NNW 19.3 km/h 10.0 km/h 57% 0.0 mm SKC
04:55 26.7 °C 17.5 °C 1013.2 hPa NNE 19.3 km/h 11.7 km/h 57% 0.0 mm SKC
05:00 26.7 °C 17.8 °C 1013.2 hPa NNW 4.8 km/h 19.3 km/h 58% 0.0 mm SKC
05:05 26.7 °C 17.7 °C 1013.2 hPa NNW 22.2 km/h 12.1 km/h 58% 0.0 mm SKC
05:10 26.6 °C 17.7 °C 1013.2 hPa WNW 16.7 km/h 10.6 km/h 58% 0.0 mm SKC
05:15 26.6 °C 17.9 °C 1013.2 hPa SW 13.0 km/h 7.4 km/h 59% 0.0 mm SKC
05:20 26.6 °C 17.9 °C 1013.2 hPa North 18.5 km/h 10.9 km/h 59% 0.0 mm SKC
05:25 26.4 °C 17.8 °C 1013.3 hPa NW 18.5 km/h 8.7 km/h 59% 0.0 mm SKC
05:30 26.4 °C 18.0 °C 1013.3 hPa North 12.9 km/h 29.0 km/h 60% 0.0 mm SKC
05:35 26.1 °C 17.7 °C 1013.3 hPa North 31.5 km/h 17.7 km/h 60% 0.0 mm SKC
05:40 26.0 °C 17.6 °C 1013.3 hPa WNW 19.3 km/h 13.4 km/h 60% 0.0 mm SKC
05:45 25.9 °C 17.6 °C 1013.3 hPa North 25.9 km/h 20.9 km/h 60% 0.0 mm SKC
05:50 25.8 °C 17.7 °C 1013.4 hPa NW 27.8 km/h 13.7 km/h 61% 0.0 mm SKC
05:55 25.8 °C 17.7 °C 1013.4 hPa NNW 22.2 km/h 16.1 km/h 61% 0.0 mm SKC
06:00 25.7 °C 17.6 °C 1013.4 hPa NNW 14.5 km/h 29.0 km/h 61% 0.0 mm SKC
06:05 25.6 °C 17.5 °C 1013.4 hPa NW 25.9 km/h 18.8 km/h 61% 0.0 mm SKC
06:10 25.5 °C 17.4 °C 1013.5 hPa North 22.2 km/h 15.3 km/h 61% 0.0 mm SKC
06:15 25.6 °C 17.5 °C 1013.5 hPa NW 22.2 km/h 17.1 km/h 61% 0.0 mm SKC
06:20 25.6 °C 17.7 °C 1013.6 hPa ENE 14.8 km/h 7.9 km/h 62% 0.0 mm SKC
06:25 25.7 °C 17.6 °C 1013.6 hPa NW 14.8 km/h 7.1 km/h 61% 0.0 mm SKC
06:30 26.0 °C 17.9 °C 1013.6 hPa North 16.7 km/h 8.4 km/h 61% 0.0 mm SKC
06:35 26.3 °C 17.9 °C 1013.6 hPa WNW 24.1 km/h 12.1 km/h 60% 0.0 mm SKC
06:40 26.4 °C 18.0 °C 1013.6 hPa East 7.4 km/h 4.2 km/h 60% 0.0 mm SKC
06:45 26.8 °C 18.1 °C 1013.7 hPa East 7.4 km/h 3.4 km/h 59% 0.0 mm SKC
06:50 27.2 °C 17.9 °C 1013.7 hPa East 16.7 km/h 6.8 km/h 57% 0.0 mm SKC
06:55 27.4 °C 17.8 °C 1013.7 hPa NE 7.4 km/h 3.4 km/h 56% 0.0 mm SKC
07:00 27.4 °C 17.9 °C 1013.7 hPa NNW 9.7 km/h 19.3 km/h 56% 0.0 mm SKC
07:05 27.4 °C 17.8 °C 1013.7 hPa North 9.7 km/h 20.9 km/h 56% 0.0 mm SKC
07:10 27.2 °C 17.7 °C 1013.7 hPa NNW 13.0 km/h 8.4 km/h 56% 0.0 mm SKC
07:15 27.2 °C 17.9 °C 1013.9 hPa NNW 16.1 km/h 10.0 km/h 57% 0.0 mm SKC
07:20 27.2 °C 17.9 °C 1013.9 hPa NW 19.3 km/h 8.0 km/h 57% 0.0 mm SKC
07:25 27.2 °C 17.9 °C 1014.0 hPa NNW 14.8 km/h 7.9 km/h 57% 0.0 mm SKC
07:30 27.2 °C 17.9 °C 1014.0 hPa NW 11.3 km/h 19.3 km/h 57% 0.0 mm SKC
07:35 26.8 °C 17.6 °C 1014.1 hPa NW 14.8 km/h 6.9 km/h 57% 0.0 mm SKC
07:40 26.7 °C 17.8 °C 1014.1 hPa WNW 14.8 km/h 9.3 km/h 58% 0.0 mm SKC
07:45 26.8 °C 17.8 °C 1014.1 hPa NNW 14.8 km/h 8.4 km/h 58% 0.0 mm SKC
07:50 26.9 °C 18.0 °C 1014.1 hPa ENE 11.1 km/h 7.2 km/h 58% 0.0 mm SKC
07:55 27.1 °C 18.1 °C 1014.2 hPa NW 4.8 km/h 16.1 km/h 58% 0.0 mm SKC
08:00 27.4 °C 18.2 °C 1014.2 hPa NNW 11.3 km/h 19.3 km/h 57% 0.0 mm SKC
08:05 27.8 °C 18.5 °C 1014.2 hPa North 19.3 km/h 9.7 km/h 57% 0.0 mm SKC
08:10 28.1 °C 18.7 °C 1014.2 hPa NNE 18.5 km/h 9.3 km/h 57% 0.0 mm SKC
08:15 28.2 °C 18.8 °C 1014.1 hPa North 18.5 km/h 11.7 km/h 57% 0.0 mm SKC
08:20 28.3 °C 18.9 °C 1014.2 hPa North 16.7 km/h 6.9 km/h 57% 0.0 mm SKC
08:25 28.4 °C 18.8 °C 1014.2 hPa ENE 18.5 km/h 9.7 km/h 56% 0.0 mm SKC
08:30 28.7 °C 18.7 °C 1014.2 hPa North 3.2 km/h 14.5 km/h 55% 0.0 mm SKC
08:35 28.9 °C 18.9 °C 1014.2 hPa SW 14.5 km/h 5.8 km/h 55% 0.0 mm SKC
08:40 28.9 °C 18.7 °C 1014.2 hPa NNE 18.5 km/h 7.1 km/h 54% 0.0 mm SKC
08:45 29.1 °C 18.8 °C 1014.3 hPa ENE 13.0 km/h 8.0 km/h 54% 0.0 mm SKC
08:50 29.2 °C 18.7 °C 1014.3 hPa NNE 13.0 km/h 4.5 km/h 53% 0.0 mm SKC
08:55 29.3 °C 18.7 °C 1014.3 hPa West 11.1 km/h 4.5 km/h 53% 0.0 mm SKC
09:00 29.2 °C 18.7 °C 1014.4 hPa North 9.7 km/h 20.9 km/h 53% 0.0 mm SKC
09:05 29.4 °C 18.6 °C 1014.4 hPa ESE 18.5 km/h 9.7 km/h 52% 0.0 mm SKC
09:10 29.7 °C 18.8 °C 1014.4 hPa ENE 7.4 km/h 4.7 km/h 52% 0.0 mm SKC
09:15 29.8 °C 18.6 °C 1014.3 hPa NW 14.8 km/h 7.1 km/h 51% 0.0 mm SKC
09:20 30.0 °C 18.4 °C 1014.3 hPa NNE 16.7 km/h 7.6 km/h 50% 0.0 mm SKC
09:25 30.2 °C 18.6 °C 1014.3 hPa ENE 13.0 km/h 7.1 km/h 50% 0.0 mm SKC
09:30 30.1 °C 18.2 °C 1014.4 hPa WSW 9.3 km/h 6.4 km/h 49% 0.0 mm SKC
09:35 30.3 °C 18.4 °C 1014.4 hPa NNE 9.7 km/h 22.5 km/h 49% 0.0 mm SKC
09:40 30.1 °C 18.2 °C 1014.4 hPa East 19.3 km/h 7.9 km/h 49% 0.0 mm SKC
09:45 30.3 °C 18.4 °C 1014.5 hPa NE 16.1 km/h 4.8 km/h 49% 0.0 mm SKC
09:50 30.3 °C 18.1 °C 1014.5 hPa NNE 19.3 km/h 7.2 km/h 48% 0.0 mm SKC
09:55 30.4 °C 18.2 °C 1014.5 hPa SE 14.8 km/h 8.4 km/h 48% 0.0 mm SKC
10:00 30.4 °C 17.9 °C 1014.5 hPa ENE 4.8 km/h 19.3 km/h 47% 0.0 mm SKC
10:05 30.6 °C 17.9 °C 1014.5 hPa NE 11.3 km/h 19.3 km/h 47% 0.0 mm SKC
10:10 30.6 °C 18.0 °C 1014.5 hPa West 11.1 km/h 6.0 km/h 47% 0.0 mm SKC
10:15 30.5 °C 17.6 °C 1014.4 hPa ENE 20.9 km/h 10.9 km/h 46% 0.0 mm SKC
10:20 30.6 °C 17.9 °C 1014.5 hPa North 18.5 km/h 11.3 km/h 47% 0.0 mm SKC
10:25 30.7 °C 17.8 °C 1014.5 hPa NNW 18.5 km/h 8.4 km/h 46% 0.0 mm SKC
10:30 30.8 °C 17.9 °C 1014.4 hPa East 8.0 km/h 19.3 km/h 46% 0.0 mm SKC
10:35 31.1 °C 17.7 °C 1014.3 hPa NNW 11.1 km/h 5.0 km/h 45% 0.0 mm SKC
10:40 30.9 °C 17.6 °C 1014.4 hPa North 22.2 km/h 11.9 km/h 45% 0.0 mm SKC
10:45 31.2 °C 17.5 °C 1014.4 hPa NNE 20.9 km/h 13.4 km/h 44% 0.0 mm SKC
10:50 30.9 °C 17.3 °C 1014.5 hPa NE 18.5 km/h 13.7 km/h 44% 0.0 mm SKC
10:55 30.9 °C 16.8 °C 1014.4 hPa South 16.7 km/h 7.9 km/h 43% 0.0 mm SKC
11:00 31.2 °C 17.1 °C 1014.4 hPa NW 14.5 km/h 32.2 km/h 43% 0.0 mm SKC
11:05 30.9 °C 16.9 °C 1014.4 hPa North 32.2 km/h 13.7 km/h 43% 0.0 mm SKC
11:10 31.1 °C 16.6 °C 1014.3 hPa NE 20.9 km/h 7.9 km/h 42% 0.0 mm SKC
11:15 31.4 °C 16.6 °C 1014.3 hPa East 18.5 km/h 11.6 km/h 41% 0.0 mm SKC
11:20 31.7 °C 16.8 °C 1014.2 hPa NE 18.5 km/h 6.6 km/h 41% 0.0 mm SKC
11:25 31.7 °C 16.8 °C 1014.1 hPa NNW 20.9 km/h 13.5 km/h 41% 0.0 mm SKC
11:30 31.5 °C 17.1 °C 1014.2 hPa North 4.8 km/h 22.5 km/h 42% 0.0 mm SKC
11:35 31.7 °C 16.8 °C 1014.1 hPa East 16.7 km/h 7.4 km/h 41% 0.0 mm SKC
11:40 31.7 °C 16.4 °C 1014.2 hPa NW 29.6 km/h 17.7 km/h 40% 0.0 mm SKC
11:45 31.5 °C 16.3 °C 1014.2 hPa North 20.4 km/h 10.5 km/h 40% 0.0 mm SKC
11:50 31.7 °C 16.8 °C 1014.1 hPa NE 20.9 km/h 16.4 km/h 41% 0.0 mm SKC
11:55 31.4 °C 16.9 °C 1014.2 hPa ENE 11.3 km/h 7.1 km/h 42% 0.0 mm SKC
12:00 31.4 °C 16.6 °C 1014.3 hPa NE 14.5 km/h 32.2 km/h 41% 0.0 mm SKC
12:05 31.8 °C 16.9 °C 1014.2 hPa North 14.8 km/h 8.5 km/h 41% 0.0 mm SKC
12:10 31.7 °C 16.8 °C 1014.1 hPa ENE 20.9 km/h 11.1 km/h 41% 0.0 mm SKC
12:15 31.3 °C 16.5 °C 1014.2 hPa East 25.9 km/h 15.1 km/h 41% 0.0 mm SKC
12:20 31.1 °C 17.1 °C 1014.2 hPa NE 24.1 km/h 14.0 km/h 43% 0.0 mm SKC
12:25 31.2 °C 16.7 °C 1014.2 hPa NE 18.5 km/h 13.0 km/h 42% 0.0 mm FEW
12:30 31.6 °C 16.7 °C 1014.1 hPa NNE 9.7 km/h 24.1 km/h 41% 0.0 mm FEW
12:35 31.8 °C 16.6 °C 1014.2 hPa NE 9.7 km/h 25.7 km/h 40% 0.0 mm FEW
12:40 31.6 °C 16.8 °C 1014.1 hPa SE 18.5 km/h 12.2 km/h 41% 0.0 mm FEW
12:45 31.8 °C 16.6 °C 1014.1 hPa South 30.6 km/h 13.4 km/h 40% 0.0 mm FEW
12:50 31.8 °C 16.2 °C 1014.1 hPa NE 35.4 km/h 13.7 km/h 39% 0.0 mm FEW
12:55 31.8 °C 16.1 °C 1014.0 hPa ENE 25.9 km/h 16.7 km/h 39% 0.0 mm FEW
13:00 31.8 °C 16.1 °C 1014.0 hPa NW 11.1 km/h 7.4 km/h 39% 0.0 mm FEW
13:05 32.3 °C 16.6 °C 1014.0 hPa NNE 16.1 km/h 7.1 km/h 39% 0.0 mm FEW
13:10 32.1 °C 16.4 °C 1013.9 hPa West 18.5 km/h 11.9 km/h 39% 0.0 mm FEW
13:15 32.3 °C 16.6 °C 1014.0 hPa SW 25.9 km/h 14.2 km/h 39% 0.0 mm FEW
13:20 31.9 °C 15.8 °C 1014.0 hPa ENE 20.4 km/h 9.8 km/h 38% 0.0 mm FEW
13:25 32.2 °C 16.1 °C 1014.0 hPa ENE 31.5 km/h 11.6 km/h 38% 0.0 mm FEW
13:30 32.1 °C 16.0 °C 1013.9 hPa SSW 25.9 km/h 15.0 km/h 38% 0.0 mm FEW
13:35 32.1 °C 16.4 °C 1013.9 hPa SSW 18.5 km/h 8.5 km/h 39% 0.0 mm FEW
13:40 32.2 °C 16.5 °C 1014.0 hPa ESE 16.7 km/h 7.6 km/h 39% 0.0 mm FEW
13:45 32.5 °C 16.8 °C 1013.9 hPa ENE 18.5 km/h 8.4 km/h 39% 0.0 mm FEW
13:50 32.2 °C 16.8 °C 1014.0 hPa ENE 16.7 km/h 8.5 km/h 40% 0.0 mm FEW